Flag for Malaysia Weather past 2 weeks in Kuching, Malaysia

Now
91 °F

Broken clouds.


Feels Like: 100 °F
Forecast: 78 / 93 °F
Wind: 7 mph from Southeast

Location: Kuching Airport

Current Time: Jun 30, 2015 at 2:07:13 PM

Latest Report: Jun 30, 2015 at 1:30 PM


Visibility: N/A

Pressure: 29.86 "Hg

Humidity: 56%

Dew point: 73 °F

Location of KuchingLocation

Historic Weather in Kuching — Graph

°F

Kuching temperature yesterday

Maximum temperature yesterday: 86 °F (at 4:30 PM)
Minimum temperature yesterday: 77 °F (at 11:00 AM)
Average temperature yesterday: 80 °F

Past Weeks' High & Low Weather Summary

 TemperatureHumidityPressure
High95 °F (Jun 27, 3:00 PM)100% (Jun 16, 4:00 PM)30.01 "Hg (Jun 16, 4:00 PM)
Low73 °F (Jun 16, 4:00 PM)53% (Jun 26, 4:00 PM)29.71 "Hg (Jun 15, 2:30 PM)
Average83 °F81%29.82 "Hg
* Reported Jun 15 1:00 PM — Jun 30 1:00 PM, Kuching, Weather by CustomWeather, © 2015

Note: Actual official high and low records may vary slightly from our data, if they occured in-between our weather recording intervals... More about our weather records

Advertising

Kuching weather history for previous 24 hours

 ConditionsComfort  
Time TempWeatherWind HumidityBarometerVisibility
1:00 PM
Tue, Jun 30
91 °FBroken clouds.5 mph59%29.89 "HgN/A
12:30 PM90 °FBroken clouds.7 mph59%29.89 "HgN/A
12:00 PM88 °FBroken clouds.9 mph66%29.89 "HgN/A
11:30 AM88 °FBroken clouds.10 mph66%29.92 "HgN/A
11:00 AM86 °FPartly sunny.12 mph70%29.92 "HgN/A
10:30 AM86 °FPartly sunny.10 mph70%29.92 "HgN/A
10:00 AM84 °FBroken clouds.10 mph74%29.95 "HgN/A
9:30 AM82 °FPartly sunny.9 mph84%29.95 "HgN/A
9:00 AM81 °FBroken clouds.3 mph89%29.95 "HgN/A
8:30 AM79 °FPartly sunny.1 mph94%29.95 "HgN/A
8:00 AM77 °FPartly sunny.1 mph94%29.92 "HgN/A
7:30 AM75 °FPartly sunny.2 mph100%29.92 "HgN/A
7:00 AM75 °FPartly sunny.3 mph100%29.92 "HgN/A
6:30 AM75 °FPassing clouds.5 mph100%29.92 "Hg4 mi
6:00 AM75 °FFog.5 mph100%29.89 "Hg3 mi
5:30 AM75 °FFog.6 mph100%29.89 "Hg3 mi
5:00 AM75 °FPartly cloudy.3 mph100%29.89 "Hg4 mi
4:30 AM75 °FPartly cloudy.3 mph100%29.89 "Hg4 mi
4:00 AM75 °FPartly cloudy.2 mph100%29.89 "Hg4 mi
3:30 AM75 °FPartly cloudy.1 mph100%29.89 "Hg4 mi
3:00 AM77 °FPartly cloudy.1 mph94%29.89 "Hg4 mi
2:30 AM77 °FPartly cloudy.2 mph94%29.89 "HgN/A
2:00 AM77 °FPartly cloudy.2 mph94%29.92 "HgN/A
1:30 AM77 °FPartly cloudy.2 mph94%29.92 "HgN/A
1:00 AM77 °FPartly cloudy.3 mph94%29.92 "HgN/A
12:30 AM77 °FPartly cloudy.3 mph94%29.95 "HgN/A
12:00 AM77 °FPartly cloudy.3 mph94%29.95 "HgN/A
11:30 PM
Mon, Jun 29
77 °FPartly cloudy.1 mph94%29.95 "HgN/A
11:00 PM77 °FPartly cloudy.2 mph94%29.95 "HgN/A
10:30 PM77 °FPartly cloudy.3 mph94%29.95 "HgN/A
10:00 PM79 °FPartly cloudy.3 mph89%29.95 "HgN/A
9:30 PM79 °FPartly cloudy.3 mph89%29.95 "HgN/A
9:00 PM79 °FPartly cloudy.5 mph89%29.95 "HgN/A
8:30 PM79 °FPartly cloudy.5 mph89%29.95 "HgN/A
8:00 PM79 °FPartly cloudy.8 mph94%29.92 "HgN/A
7:30 PM81 °FPartly cloudy.9 mph89%29.92 "HgN/A
7:00 PM82 °FPartly cloudy.5 mph84%29.89 "HgN/A
6:30 PM82 °FPartly sunny.3 mph84%29.89 "HgN/A
6:00 PM84 °FPartly sunny.3 mph79%29.86 "HgN/A
5:30 PM84 °FPartly sunny.5 mph79%29.86 "HgN/A
5:00 PM86 °FPartly sunny.5 mph75%29.86 "HgN/A
4:30 PM86 °FPartly sunny.7 mph75%29.86 "HgN/A
4:00 PM84 °FPartly sunny.3 mph74%29.86 "HgN/A
3:30 PM84 °FPartly sunny.5 mph74%29.86 "HgN/A
3:00 PM82 °FPartly sunny.3 mph79%29.89 "HgN/A
2:30 PM81 °FPartly sunny.2 mph79%29.92 "HgN/A
2:00 PM81 °FPartly sunny.5 mph79%29.92 "HgN/A
Weather by CustomWeather, © 2015

See weather overviewHow to use our weather pages